DW9456 Weather Reports


time (UTC)temp
C
wind
direction
speed
KPH
gust
KPH
rain 1hr
cm
rain 24hr
cm
rain mn
cm
humidity
%
barometer
mb
20260505072805 17 234 0.0 0.0 0.00 0.00 0.00 69 1007.2
20260505072301 16 218 0.0 0.0 0.00 0.00 0.00 69 1007.3
20260505071757 16 234 0.0 0.0 0.00 0.00 0.00 69 1007.2
20260505071254 17 201 1.6 8.0 0.00 0.00 0.00 68 1007.5
20260505070751 17 230 0.0 0.0 0.00 0.00 0.00 68 1007.3
20260505070248 17 233 0.0 3.2 0.00 0.00 0.00 67 1007.2
20260505065743 17 213 3.2 8.0 0.00 0.00 0.00 67 1007.5
20260505065240 17 232 4.8 4.8 0.00 0.00 0.00 66 1007.4
20260505064737 17 215 6.4 9.7 0.00 0.00 0.00 66 1007.5
20260505064235 17 227 8.0 9.7 0.00 0.00 0.00 65 1007.4
20260505063732 17 238 0.0 12.9 0.00 0.00 0.00 66 1007.3
20260505063228 17 235 8.0 12.9 0.00 0.00 0.00 64 1007.0
20260505062725 17 232 9.7 16.1 0.00 0.00 0.00 64 1007.1
20260505062223 17 219 0.0 9.7 0.00 0.00 0.00 65 1007.0
20260505061719 18 243 6.4 11.3 0.00 0.00 0.00 65 1007.1
20260505061217 18 211 9.7 12.9 0.00 0.00 0.00 64 1007.0
20260505060714 18 214 9.7 14.5 0.00 0.00 0.00 63 1006.6
20260505060211 18 214 11.3 12.9 0.00 0.00 0.00 64 1006.8
20260505055707 18 219 9.7 16.1 0.00 0.00 0.00 64 1006.7
20260505055203 18 232 12.9 16.1 0.00 0.00 0.00 64 1006.6
20260505054701 18 201 6.4 12.9 0.00 0.00 0.00 64 1006.4
20260505054159 18 236 9.7 20.9 0.00 0.00 0.00 63 1006.6
20260505053656 18 164 8.0 14.5 0.00 0.00 0.00 63 1006.3
20260505053152 18 203 8.0 11.3 0.00 0.00 0.00 63 1006.1
20260505052649 18 202 6.4 14.5 0.00 0.00 0.00 63 1006.2
20260505052147 18 201 4.8 16.1 0.00 0.00 0.00 63 1006.1
20260505051643 18 219 9.7 16.1 0.00 0.00 0.00 63 1006.4
20260505051142 18 184 8.0 12.9 0.00 0.00 0.00 63 1006.0
20260505050639 18 209 11.3 14.5 0.00 0.00 0.00 63 1005.9
20260505050137 18 212 8.0 14.5 0.00 0.00 0.00 63 1006.0
20260505041607 18 203 4.8 9.7 0.00 0.00 0.00 63 1006.5
20260505041104 18 189 9.7 12.9 0.00 0.00 0.00 63 1006.5
20260505040602 18 196 6.4 11.3 0.00 0.00 0.00 63 1006.6
20260505040058 18 209 6.4 14.5 0.00 0.00 0.00 62 1006.9
20260505035555 18 198 3.2 12.9 0.00 0.05 0.05 63 1006.7
20260505035051 18 214 3.2 9.7 0.00 0.05 0.05 63 1006.8
20260505034548 18 195 8.0 12.9 0.00 0.05 0.05 63 1006.7
20260505034045 19 185 8.0 11.3 0.00 0.05 0.05 63 1006.6
20260505033542 19 188 6.4 14.5 0.00 0.05 0.05 62 1006.8
20260505033040 18 185 9.7 11.3 0.00 0.05 0.05 62 1006.9
20260505032538 18 212 9.7 12.9 0.00 0.05 0.05 63 1006.8
20260505032034 18 205 4.8 11.3 0.00 0.05 0.05 64 1007.0
20260505031531 18 209 4.8 9.7 0.00 0.05 0.05 64 1006.6
20260505031027 18 162 6.4 8.0 0.00 0.05 0.05 64 1006.8
20260505030525 18 206 4.8 8.0 0.00 0.05 0.05 65 1006.9
20260505030021 18 204 4.8 9.7 0.00 0.05 0.05 65 1006.8
20260505025516 18 240 4.8 4.8 0.00 0.05 0.05 64 1006.8
20260505025016 18 210 6.4 9.7 0.00 0.05 0.05 63 1006.8
20260505024512 19 184 4.8 8.0 0.00 0.05 0.05 63 1006.7
20260505024009 19 211 4.8 9.7 0.00 0.05 0.05 63 1006.7
20260505023506 18 203 0.0 9.7 0.00 0.05 0.05 63 1006.5
20260505023004 19 203 4.8 8.0 0.00 0.05 0.05 63 1006.4
20260505022501 19 205 4.8 8.0 0.00 0.05 0.05 63 1006.5
20260505021958 18 192 3.2 4.8 0.00 0.05 0.05 63 1006.4
20260505021454 19 206 4.8 8.0 0.00 0.05 0.05 63 1006.1
20260505020950 18 184 4.8 9.7 0.00 0.05 0.05 62 1006.2
20260505020445 18 214 3.2 3.2 0.00 0.05 0.05 62 1006.1
20260505015943 19 208 1.6 3.2 0.00 0.05 0.05 62 1006.0
20260505015440 19 181 1.6 3.2 0.00 0.05 0.05 61 1005.7
20260505014937 19 217 0.0 0.0 0.00 0.05 0.05 61 1005.9
20260505014434 19 207 1.6 4.8 0.00 0.05 0.05 61 1005.7
20260505013931 20 209 1.6 4.8 0.00 0.05 0.05 61 1005.6
20260505013428 19 218 0.0 8.0 0.00 0.05 0.05 62 1005.5
20260505012926 19 215 0.0 0.0 0.00 0.05 0.05 63 1005.6
20260505012424 19 202 0.0 0.0 0.00 0.05 0.05 63 1005.7
20260505011919 19 220 0.0 0.0 0.00 0.05 0.05 62 1005.7
20260505011416 20 235 0.0 0.0 0.00 0.05 0.05 61 1005.6
20260505010913 20 198 0.0 0.0 0.00 0.05 0.05 61 1005.4
20260505010409 20 221 0.0 0.0 0.00 0.05 0.05 60 1005.6
20260505005904 20 195 0.0 4.8 0.00 0.05 0.05 60 1005.5
20260505005402 20 234 0.0 8.0 0.00 0.05 0.05 60 1005.7
20260505004859 20 213 0.0 11.3 0.00 0.05 0.05 59 1005.6
20260505004355 20 204 0.0 0.0 0.00 0.05 0.05 59 1005.5
20260505003853 21 209 0.0 9.7 0.00 0.05 0.05 57 1005.6
20260505003350 21 210 1.6 9.7 0.00 0.05 0.05 57 1005.6
20260505002846 21 211 3.2 12.9 0.00 0.05 0.05 56 1005.6
20260505002343 21 212 0.0 14.5 0.00 0.05 0.05 56 1005.6
20260505001841 21 217 4.8 11.3 0.00 0.05 0.05 55 1005.4
20260505001338 21 217 0.0 9.7 0.00 0.05 0.05 55 1005.7
20260505000835 21 159 0.0 12.9 0.00 0.05 0.05 55 1005.5
20260505000333 21 211 4.8 20.9 0.00 0.05 0.05 55 1006.1
20260504235829 22 209 3.2 12.9 0.00 0.05 0.05 55 1006.0
20260504235326 22 204 9.7 14.5 0.00 0.05 0.05 54 1005.9
20260504234823 22 213 16.1 20.9 0.00 0.05 0.05 53 1005.9
20260504234321 22 232 12.9 20.9 0.00 0.05 0.05 53 1006.0
20260504233817 22 206 14.5 29.0 0.00 0.05 0.05 52 1006.0
20260504233313 22 209 8.0 20.9 0.00 0.05 0.05 52 1006.0
20260504232809 22 223 8.0 11.3 0.00 0.05 0.05 52 1006.0
20260504232307 22 217 8.0 17.7 0.00 0.05 0.05 52 1006.3
20260504231804 22 243 16.1 22.5 0.00 0.05 0.05 49 1006.2
20260504231300 22 191 12.9 22.5 0.00 0.05 0.05 50 1006.3
20260504230756 22 207 19.3 24.1 0.00 0.05 0.05 50 1006.3
20260504230254 22 217 22.5 27.4 0.00 0.05 0.05 50 1006.2
20260504225753 23 220 12.9 25.7 0.00 0.05 0.05 55 1006.2
20260504225249 23 323 8.0 12.9 0.00 0.05 0.05 55 1006.4
20260504224746 23 212 1.6 8.0 0.00 0.05 0.05 55 1006.4
20260504224243 23 196 0.0 0.0 0.00 0.05 0.05 56 1006.4
20260504223739 22 274 0.0 0.0 0.00 0.05 0.05 56 1006.6
20260504223235 22 184 0.0 0.0 0.00 0.05 0.05 55 1006.3
20260504222732 22 228 0.0 0.0 0.00 0.05 0.05 58 1006.6
20260504222229 22 193 0.0 0.0 0.00 0.05 0.05 57 1006.9
20260504221727 22 183 0.0 0.0 0.00 0.05 0.05 57 1006.8
20260504221224 22 207 0.0 0.0 0.00 0.05 0.05 59 1006.8
20260504220720 21 228 0.0 0.0 0.00 0.05 0.05 58 1006.8
20260504220217 22 222 0.0 4.8 0.00 0.05 0.05 59 1006.8
20260504215714 22 235 0.0 8.0 0.00 0.05 0.05 57 1007.0
20260504215212 21 223 0.0 9.7 0.00 0.05 0.05 55 1006.8
20260504214707 21 222 0.0 12.9 0.00 0.05 0.05 56 1006.9
20260504214203 22 219 14.5 20.9 0.00 0.05 0.05 57 1007.0
20260504213700 22 209 1.6 9.7 0.00 0.05 0.05 57 1006.9
20260504213157 22 223 4.8 8.0 0.00 0.05 0.05 59 1007.0
20260504212653 21 217 6.4 22.5 0.00 0.05 0.05 59 1007.1
20260504212150 21 224 9.7 14.5 0.00 0.05 0.05 58 1007.2
20260504211648 21 246 9.7 12.9 0.00 0.05 0.05 57 1007.7
20260504211144 21 258 8.0 16.1 0.00 0.05 0.05 59 1007.3
20260504210642 21 242 4.8 16.1 0.00 0.05 0.05 59 1007.8
20260504210138 21 226 11.3 14.5 0.00 0.05 0.05 58 1007.6
20260504205636 21 236 8.0 22.5 0.00 0.05 0.05 60 1007.9
20260504205132 21 244 11.3 16.1 0.00 0.05 0.05 58 1007.7
20260504204631 21 209 14.5 24.1 0.00 0.05 0.05 60 1007.9
20260504204130 21 252 17.7 32.2 0.00 0.05 0.05 58 1007.9
20260504203628 21 233 16.1 22.5 0.00 0.05 0.05 61 1008.0
20260504203125 21 228 19.3 27.4 0.00 0.05 0.05 62 1007.7
20260504202620 20 248 17.7 32.2 0.00 0.05 0.05 64 1007.7
20260504202117 20 212 16.1 24.1 0.00 0.05 0.05 61 1008.0
20260504201614 20 226 8.0 14.5 0.00 0.05 0.05 66 1008.2
20260504201112 20 252 9.7 14.5 0.00 0.05 0.05 66 1008.3
20260504200609 20 243 9.7 14.5 0.00 0.05 0.05 69 1008.3
20260504200105 20 214 6.4 16.1 0.00 0.05 0.05 67 1008.3
20260504195601 20 221 9.7 11.3 0.00 0.05 0.05 70 1008.4
20260504195057 20 216 4.8 11.3 0.00 0.05 0.05 71 1008.4
20260504194554 19 227 8.0 11.3 0.00 0.05 0.05 75 1008.2
20260504194049 18 231 9.7 11.3 0.00 0.05 0.05 73 1008.3
20260504193546 18 234 8.0 11.3 0.00 0.05 0.05 75 1008.6
20260504193045 17 208 8.0 9.7 0.00 0.05 0.05 75 1008.5
20260504192543 17 238 8.0 12.9 0.00 0.05 0.05 75 1008.6
20260504192041 17 213 9.7 14.5 0.00 0.05 0.05 77 1008.5
20260504191538 17 224 9.7 16.1 0.00 0.05 0.05 76 1008.6
20260504191034 17 217 11.3 22.5 0.00 0.05 0.05 74 1008.2
20260504190531 17 203 9.7 22.5 0.13 0.05 0.05 77 1008.6
20260504190027 17 219 24.1 33.8 0.30 0.05 0.05 73 1008.4
20260504185524 17 228 16.1 17.7 0.18 0.03 0.03 74 1008.9
20260504185020 17 219 8.0 11.3 0.00 0.00 0.00 73 1008.9
20260504184516 17 244 9.7 16.1 0.00 0.00 0.00 74 1009.1
20260504184012 17 192 12.9 16.1 0.00 0.00 0.00 73 1009.4
20260504183509 18 207 12.9 14.5 0.00 0.00 0.00 68 1009.5
20260504183008 19 183 14.5 17.7 0.00 0.00 0.00 63 1009.8
20260504182503 19 227 14.5 20.9 0.00 0.00 0.00 62 1009.5
20260504182001 19 235 16.1 41.8 0.00 0.00 0.00 63 1009.0
20260504181458 20 221 19.3 38.6 0.00 0.00 0.00 61 1009.2
20260504180956 20 241 22.5 27.4 0.00 0.00 0.00 60 1009.0
20260504180455 20 223 27.4 33.8 0.00 0.00 0.00 58 1008.9
20260504175953 20 243 14.5 25.7 0.00 0.00 0.00 60 1008.5
20260504175450 20 217 17.7 25.7 0.00 0.00 0.00 59 1008.6
20260504174947 21 217 19.3 24.1 0.00 0.00 0.00 59 1008.5
20260504174445 21 215 14.5 17.7 0.00 0.00 0.00 61 1008.5
20260504173942 20 191 11.3 22.5 0.00 0.00 0.00 62 1008.4
20260504173438 20 209 9.7 20.9 0.00 0.00 0.00 63 1008.4
20260504172936 20 196 16.1 20.9 0.00 0.00 0.00 62 1008.2
20260504172431 20 189 11.3 14.5 0.00 0.00 0.00 63 1008.1
20260504171928 20 204 6.4 11.3 0.00 0.00 0.00 65 1008.3
20260504171425 20 208 8.0 16.1 0.00 0.00 0.00 63 1008.4
20260504170922 20 232 9.7 16.1 0.00 0.00 0.00 68 1008.5
20260504170418 20 207 8.0 20.9 0.00 0.00 0.00 66 1008.7
20260504160338 18 235 8.0 11.3 0.00 0.00 0.00 67 1009.2
20260504150802 17 202 9.7 16.1 0.00 0.00 0.00 67 1009.1
20260504150259 17 225 8.0 12.9 0.00 0.00 0.00 67 1009.3
20260504141229 16 223 4.8 14.5 0.00 0.00 0.00 68 1009.2
20260504140725 16 206 14.5 20.9 0.00 0.00 0.00 70 1009.5
20260504140221 15 214 16.1 20.9 0.00 0.00 0.00 70 1009.3
20260504130649 13 193 8.0 12.9 0.00 0.00 0.00 72 1009.7
20260504130146 13 206 8.0 14.5 0.00 0.00 0.00 72 1009.7
20260504120110 11 219 9.7 12.9 0.00 0.00 0.00 73 1009.8
20260504110537 11 220 8.0 12.9 0.00 0.00 0.00 72 1010.0
20260504100454 10 213 1.6 4.8 0.00 0.00 0.00 74 1009.8
20260504081847 10 211 3.2 8.0 0.00 0.00 0.00 69 1010.5
20260504081343 10 206 6.4 8.0 0.00 0.00 0.00 70 1010.7
20260504080839 10 230 4.8 4.8 0.00 0.00 0.00 69 1010.7
20260504080337 10 216 4.8 9.7 0.00 0.00 0.00 69 1010.7